Home   Weather   Paris Park   Past weeks
Flag for USA

Past Weather in Paris Park, Kansas, USA — Yesterday and Last 2 Weeks

Now
83 °F

Thunderstorms. Broken clouds.


Feels Like: 88 °F
Forecast: 96 / 75 °F
Wind: 10 mph from Southeast

Location: Wichita Mid-Continent Airport

Current Time: Jul 21, 2019 at 12:20:19 pm

Latest Report: Jul 21, 2019 at 11:53 am


Visibility: 8 mi

Pressure: 29.87 "Hg

Humidity: 68%

Dew Point: 71 °F

Location of Paris ParkLocation

Past Weather in Paris Park — Graph

°F

Paris Park Temperature Yesterday

Maximum temperature yesterday: 101 °F (at 2:53 pm)
Minimum temperature yesterday: 78 °F (at 6:53 am)
Average temperature yesterday: 89 °F

High & Low Weather Summary for the Past Weeks

 TemperatureHumidityPressure
High101 °F (Jul 17, 3:53 pm)90% (Jul 10, 5:53 am)30.12 "Hg (Jul 10, 5:53 am)
Low65 °F (Jul 12, 4:53 am)32% (Jul 17, 5:53 pm)29.69 "Hg (Jul 18, 5:53 pm)
Average83 °F63%29.90 "Hg
* Reported Jul 6 10:53 am — Jul 21 10:53 am, Paris Park. Weather by CustomWeather, © 2019

Note: Actual official high and low records may vary slightly from our data, if they occured in-between our weather recording intervals... More about our weather records

Advertising

Paris Park Weather History for the Previous 24 Hours

Scroll right to see more
 ConditionsComfort  
Time TempWeatherWind HumidityBarometerVisibility
10:53 am
Sun, Jul 21
85 °FCloudy.6 mph61%29.88 "Hg10 mi
9:53 am82 °FBroken clouds.5 mph65%29.88 "Hg10 mi
8:53 am81 °FBroken clouds.7 mph67%29.85 "Hg10 mi
7:53 am77 °FPartly sunny.5 mph77%29.85 "Hg10 mi
6:53 am75 °FBroken clouds.8 mph82%29.85 "Hg10 mi
5:53 am76 °FPassing clouds.15 mph77%29.83 "Hg10 mi
4:53 am75 °FPassing clouds.9 mph76%29.85 "Hg10 mi
3:53 am76 °FPassing clouds.5 mph72%29.85 "Hg10 mi
2:53 am78 °FClear.9 mph69%29.81 "Hg10 mi
1:53 am80 °FClear.10 mph67%29.81 "Hg10 mi
12:53 am82 °FClear.13 mph63%29.80 "Hg10 mi
11:53 pm
Sat, Jul 20
85 °FClear.14 mph55%29.80 "Hg10 mi
10:53 pm86 °FClear.14 mph51%29.80 "Hg10 mi
9:53 pm88 °FClear.14 mph48%29.76 "Hg10 mi
8:53 pm90 °FPassing clouds.13 mph45%29.75 "Hg10 mi
7:53 pm95 °FPassing clouds.14 mph37%29.74 "Hg10 mi
6:53 pm98 °FPassing clouds.21 mph34%29.72 "Hg10 mi
5:53 pm100 °FSunny.20 mph34%29.72 "Hg10 mi
4:53 pm100 °FSunny.21 mph34%29.72 "Hg10 mi
3:53 pm101 °FSunny.25 mph34%29.72 "Hg10 mi
2:53 pm101 °FSunny.23 mph36%29.72 "Hg10 mi
1:53 pm99 °FSunny.21 mph38%29.75 "Hg10 mi
12:53 pm97 °FSunny.21 mph39%29.76 "Hg10 mi
Weather by CustomWeather, © 2019

See weather overview